Wind_Speed
104 95 89 72 67 58 55 57 65 66 60 61 59 61 60 56 54 55 56 56 51 50 53 55 58 58 61 56 53 55 58 68 54 55 55 58 58 57 60 65 70 72 74
106 94 97 83 73 70 67 67 68 60 55 61 65 62 63 56 58 58 55 56 57 57 60 60 62 64 66 62 63 62 52 55 54 57 60 67 63 62 70 73 73 80 65
112 101 101 96 94 78 73 74 67 67 69 66 68 65 66 66 65 60 56 57 62 64 62 64 66 67 64 60 55 55 52 52 59 61 69 70 68 73 81 82 86 81 79
116 110 106 105 99 105 85 81 75 68 69 68 67 70 67 60 55 54 55 59 57 62 66 67 71 73 71 59 56 56 54 60 64 66 67 69 73 83 85 90 89 86 83
126 112 124 116 98 101 106 84 80 77 65 64 67 63 60 52 52 55 55 55 60 60 55 54 52 53 59 57 54 55 54 59 65 67 72 78 83 79 90 97 90 93 87
110 101 104 114 114 115 87 96 86 76 62 64 69 66 63 58 59 58 56 54 56 53 54 52 51 57 57 56 56 63 62 68 77 72 74 79 84 90 92 94 96 90 95
112 111 107 109 112 122 108 100 102 83 82 78 66 70 65 62 61 63 61 63 59 61 63 61 57 59 63 61 59 61 70 71 74 80 84 87 91 98 103 93 96 100 101
118 113 113 107 113 111 102 101 109 96 82 76 84 79 73 69 68 71 73 69 61 63 69 73 76 78 75 77 78 82 84 84 84 86 89 91 99 104 103 98 113 110 110
124 122 115 108 114 113 111 110 105 107 107 100 85 82 85 87 83 84 85 85 84 80 76 81 85 83 85 90 95 93 89 92 94 99 101 102 105 109 113 116 124 119 121
127 123 116 112 114 117 113 113 116 117 111 115 110 103 95 97 98 91 98 94 94 89 90 94 95 93 96 100 98 99 95 96 103 102 105 112 114 121 124 128 126 127 129
132 132 128 120 118 113 118 123 122 117 110 107 103 99 99 99 101 97 97 91 90 96 97 95 96 97 98 95 97 100 104 107 114 116 119 121 127 131 132 132 131 133 133
134 133 130 131 125 123 123 115 114 117 108 107 105 104 101 101 102 107 107 106 103 97 96 99 98 98 100 102 106 111 114 115 120 127 133 133 132 137 137 138 138 140 139
131 139 138 137 135 130 128 126 123 119 119 115 114 109 110 107 109 113 116 122 119 116 115 113 118 120 121 120 120 121 126 129 135 138 139 141 142 141 143 146 146 142 137
120 129 140 145 148 141 139 135 132 130 124 125 125 124 125 124 124 121 122 116 119 119 121 123 126 120 121 125 127 133 137 139 142 143 142 144 145 150 152 148 143 138 129
106 118 127 134 141 140 145 148 148 145 142 133 127 126 125 124 122 124 125 126 126 126 124 124 126 129 133 137 138 137 139 142 141 148 150 151 153 152 148 144 135 127 125
93 104 110 122 127 132 139 146 146 148 147 144 140 135 133 129 128 130 130 132 132 133 133 132 137 138 140 143 141 144 145 151 149 150 154 154 153 148 139 131 128 124 116
82 90 101 106 105 116 129 131 140 149 148 145 139 134 135 136 135 135 136 136 137 137 140 141 143 146 147 148 149 150 154 154 153 148 150 146 139 134 130 124 117 108 103
72 79 88 92 96 102 107 108 119 131 137 141 148 149 144 144 146 147 148 146 147 149 149 151 153 154 156 155 153 153 151 149 144 141 138 137 133 125 113 107 103 98 95
67 75 79 83 89 94 98 101 107 113 117 121 129 138 150 157 155 154 154 153 155 156 157 156 158 157 153 148 146 143 142 139 138 135 132 121 113 106 101 98 97 95 93
58 66 75 81 84 88 92 97 100 102 104 109 113 120 123 131 139 149 152 151 154 151 146 145 144 143 142 141 140 136 137 133 127 120 111 104 100 98 97 95 94 92 89
51 59 66 75 82 87 91 93 96 100 101 101 102 105 109 114 120 123 126 130 131 131 134 132 131 126 123 121 121 117 117 111 107 109 105 100 97 94 94 91 89 86 84
43 50 58 65 73 80 86 90 93 94 94 96 99 101 102 103 103 105 109 112 114 114 115 116 115 113 110 109 108 107 106 105 102 100 96 94 92 89 87 84 82 81 77
36 41 47 54 60 65 71 77 83 87 89 92 95 96 98 100 100 102 104 104 105 105 107 107 102 99 101 100 99 100 99 94 92 92 90 89 86 82 80 78 75 72 70
26 34 39 43 50 55 59 62 65 71 77 82 86 90 92 92 93 95 97 98 98 97 97 94 91 90 91 91 90 88 87 87 86 85 83 78 76 75 72 70 67 65 63
21 26 32 37 40 46 51 54 55 58 62 67 73 79 82 84 85 86 86 87 86 86 85 85 84 84 84 83 82 82 80 80 78 76 74 72 70 67 67 65 63 60 58
18 20 26 32 37 40 43 48 50 53 56 60 65 68 71 73 75 76 77 78 78 78 79 80 78 76 74 75 75 74 72 71 71 68 65 65 65 63 62 59 57 56 55
Wind_Direction
193 198 201 207 211 205 210 221 225 231 229 232 236 238 248 241 243 245 251 254 261 259 257 256 262 269 272 278 269 270 274 274 278 283 286 289 290 292 293 296 301 305 305
193 195 201 209 206 211 218 218 223 230 231 236 241 248 242 241 246 250 251 255 255 258 260 265 269 273 279 276 270 275 273 276 279 279 282 289 290 294 301 304 303 309 303
194 202 208 209 213 213 214 219 222 230 235 241 241 243 237 242 247 252 257 252 259 262 262 265 268 274 277 272 267 275 274 273 273 279 285 286 285 298 300 303 308 308 307
197 204 211 214 213 219 214 219 226 231 232 234 238 238 243 250 247 250 251 255 260 264 262 264 270 270 271 267 269 266 268 267 272 281 285 291 296 299 300 305 305 305 304
205 206 212 213 213 218 217 221 218 224 229 224 230 234 242 238 246 248 252 262 264 262 255 257 252 255 257 261 257 262 263 270 278 286 291 289 296 295 297 302 303 305 304
200 202 207 212 214 214 212 214 212 211 215 221 226 230 229 231 240 244 247 246 245 240 246 238 238 247 252 249 256 263 265 274 273 280 286 288 288 290 298 297 301 299 302
199 202 208 212 215 216 219 221 212 210 209 214 220 221 226 225 230 235 235 243 242 241 240 238 238 239 245 251 254 263 274 271 275 281 281 281 287 290 294 293 293 297 297
202 205 207 215 216 217 219 217 215 210 208 219 219 223 224 221 223 230 232 234 238 234 235 239 241 246 248 254 263 268 269 271 273 276 278 279 283 286 288 290 294 293 292
203 208 209 212 211 211 214 214 216 214 214 222 223 225 224 232 232 232 233 235 236 236 236 242 247 251 251 261 267 270 269 270 268 271 275 281 283 283 288 290 292 293 292
206 209 208 210 213 212 214 216 220 217 226 226 231 233 233 237 242 240 239 236 240 241 246 248 252 257 259 264 267 267 265 268 271 272 274 277 278 281 284 287 290 291 292
207 209 211 211 215 215 220 222 224 226 229 228 229 232 232 235 235 235 237 237 241 244 249 253 253 255 257 260 262 262 264 265 269 271 273 275 277 280 283 285 288 291 291
210 212 212 214 217 220 223 222 223 224 228 232 231 233 232 236 235 236 236 242 246 248 249 251 253 249 252 257 260 263 264 266 270 273 275 277 280 282 284 286 287 290 291
212 215 216 218 218 221 221 222 223 224 226 230 233 234 237 238 241 244 242 243 245 246 249 250 251 258 257 259 262 264 268 270 273 275 276 279 280 281 284 286 289 290 292
210 215 219 222 222 223 224 225 225 226 232 235 236 238 240 241 245 246 245 242 244 248 249 252 252 255 257 260 265 267 269 270 273 275 276 278 280 282 284 286 288 290 292
213 214 217 221 224 226 228 228 230 232 235 237 238 239 239 241 241 242 243 244 248 250 252 252 254 256 259 264 267 268 268 271 272 274 275 279 281 283 284 286 289 293 294
216 216 218 221 223 227 229 230 233 234 236 237 239 241 239 239 242 244 246 246 249 250 252 254 257 261 263 265 267 267 268 271 273 276 276 278 279 283 286 289 292 292 291
226 223 219 219 219 225 226 229 231 233 235 237 238 240 240 242 240 242 243 245 246 248 250 254 256 258 261 264 265 267 270 270 272 275 275 279 282 285 287 288 290 289 290
234 231 228 227 225 224 224 227 230 231 234 236 236 237 239 241 241 242 244 245 248 250 253 256 257 258 262 264 265 266 268 270 273 275 278 280 283 285 286 285 287 288 289
238 237 237 235 232 231 232 231 229 229 231 233 235 238 240 240 241 243 245 246 250 253 256 257 258 260 262 263 264 267 269 272 275 277 278 281 282 282 282 284 284 286 286
241 240 240 239 240 240 238 236 236 235 236 235 237 238 240 241 242 244 246 249 251 252 255 256 258 260 262 264 266 267 269 272 275 278 278 278 280 281 281 283 284 283 284
240 240 241 242 242 241 241 242 242 241 241 241 243 243 242 242 243 244 246 248 249 251 253 256 259 262 263 264 266 268 270 274 274 275 277 279 280 280 280 281 282 282 283
245 241 241 241 241 241 243 243 243 244 245 246 248 248 248 248 248 248 249 249 251 253 256 257 260 262 264 265 267 269 270 272 273 274 275 275 277 278 279 280 280 282 284
255 251 245 243 242 242 243 242 242 243 244 245 246 248 249 250 252 253 254 255 255 256 257 258 260 262 263 265 266 268 269 270 270 271 273 274 276 277 278 280 281 282 284
266 257 256 252 245 243 244 246 248 249 249 248 248 248 249 250 251 253 254 255 256 257 257 258 260 261 262 264 264 265 266 268 269 270 273 275 276 277 278 279 281 283 284
284 272 262 256 253 250 248 248 247 247 248 249 250 251 251 251 252 253 254 255 257 258 259 260 261 261 261 262 263 264 265 267 270 272 274 276 276 277 279 281 281 281 282
315 287 274 265 258 253 251 249 247 246 245 245 246 248 249 251 252 254 255 256 257 257 257 258 259 259 259 260 262 264 267 269 271 273 274 275 277 278 279 279 279 280 280
Height
10673 10685 10696 10701 10711 10718 10724 10729 10734 10741 10745 10750 10758 10763 10767 10771 10774 10776 10779 10782 10786 10787 10787 10789 10788 10789 10790 10789 10791 10792 10792 10790 10787 10782 10780 10778 10779 10778 10776 10777 10775 10774 10773
10662 10672 10677 10688 10695 10707 10711 10715 10721 10729 10733 10739 10747 10753 10759 10761 10764 10765 10767 10769 10773 10776 10776 10777 10776 10776 10776 10777 10778 10781 10779 10778 10773 10769 10767 10765 10766 10763 10761 10760 10762 10759 10756
10647 10649 10658 10668 10681 10693 10699 10708 10712 10718 10724 10731 10739 10743 10746 10749 10752 10754 10755 10759 10763 10765 10765 10765 10763 10764 10763 10764 10768 10768 10767 10763 10759 10759 10754 10750 10749 10747 10744 10743 10743 10740 10738
10629 10637 10642 10654 10666 10673 10681 10692 10702 10708 10713 10721 10727 10730 10733 10738 10743 10743 10744 10746 10750 10751 10752 10752 10749 10751 10748 10756 10757 10754 10753 10748 10747 10746 10741 10736 10732 10732 10728 10726 10728 10725 10723
10615 10628 10633 10640 10652 10658 10669 10676 10688 10697 10702 10707 10712 10719 10725 10727 10732 10734 10735 10733 10735 10737 10737 10738 10738 10737 10737 10741 10741 10739 10739 10735 10735 10732 10728 10723 10721 10719 10717 10712 10710 10708 10707
10603 10613 10617 10627 10632 10642 10647 10658 10669 10683 10689 10690 10698 10705 10714 10720 10719 10720 10721 10721 10722 10725 10725 10725 10725 10725 10725 10727 10728 10729 10727 10725 10721 10720 10717 10714 10712 10708 10706 10702 10698 10695 10691
10590 10602 10610 10614 10619 10626 10635 10645 10659 10670 10673 10675 10682 10687 10699 10704 10706 10706 10708 10706 10709 10712 10712 10713 10710 10709 10708 10710 10713 10714 10713 10711 10709 10706 10705 10705 10701 10695 10692 10691 10689 10686 10682
10577 10587 10595 10602 10611 10619 10627 10634 10646 10655 10660 10665 10671 10681 10685 10684 10688 10691 10693 10695 10696 10698 10698 10694 10693 10694 10696 10696 10699 10703 10702 10700 10696 10693 10691 10692 10688 10682 10679 10675 10678 10674 10674
10564 10573 10580 10589 10597 10604 10611 10620 10629 10643 10646 10653 10659 10665 10667 10668 10674 10679 10676 10677 10681 10682 10681 10678 10678 10681 10682 10683 10684 10686 10685 10683 10681 10680 10677 10674 10670 10669 10664 10660 10659 10657 10655
10549 10557 10566 10572 10581 10588 10597 10606 10615 10627 10633 10637 10644 10649 10654 10653 10659 10661 10663 10666 10668 10669 10667 10668 10667 10670 10668 10669 10667 10668 10667 10664 10663 10663 10661 10658 10654 10651 10648 10644 10641 10636 10634
10530 10539 10549 10558 10566 10573 10583 10589 10597 10608 10615 10623 10631 10634 10636 10640 10645 10648 10651 10653 10654 10655 10656 10655 10654 10654 10649 10650 10648 10646 10646 10646 10642 10642 10639 10636 10634 10631 10627 10623 10619 10618 10613
10515 10525 10532 10542 10549 10557 10566 10573 10581 10592 10599 10603 10611 10618 10623 10625 10629 10634 10634 10636 10640 10640 10640 10639 10637 10634 10633 10629 10626 10627 10627 10626 10623 10619 10614 10611 10611 10608 10603 10601 10600 10595 10591
10498 10509 10517 10524 10532 10538 10547 10555 10563 10571 10580 10586 10590 10598 10605 10608 10609 10613 10615 10621 10621 10621 10622 10620 10617 10619 10612 10612 10609 10610 10607 10606 10600 10595 10591 10589 10586 10582 10580 10578 10578 10572 10568
10473 10484 10494 10503 10511 10517 10527 10536 10545 10552 10558 10565 10569 10576 10585 10589 10592 10594 10595 10598 10600 10601 10600 10599 10596 10598 10596 10592 10593 10589 10587 10582 10577 10573 10569 10567 10564 10559 10558 10557 10554 10550 10543
10456 10462 10471 10480 10489 10497 10504 10512 10522 10533 10540 10546 10550 10556 10561 10566 10569 10572 10576 10577 10579 10579 10581 10580 10579 10576 10574 10572 10571 10568 10563 10559 10559 10550 10548 10547 10543 10538 10539 10535 10531 10524 10517
10438 10446 10452 10459 10465 10474 10482 10491 10500 10506 10513 10522 10527 10533 10538 10545 10549 10550 10552 10554 10555 10554 10557 10562 10557 10556 10550 10547 10549 10544 10542 10535 10536 10534 10525 10525 10522 10522 10519 10513 10508 10501 10494
10417 10424 10431 10437 10443 10452 10459 10464 10471 10478 10487 10498 10507 10510 10516 10521 10525 10528 10530 10531 10531 10529 10530 10533 10531 10528 10526 10525 10523 10522 10519 10515 10513 10514 10507 10504 10504 10502 10496 10490 10484 10479 10473
10394 10401 10406 10411 10419 10427 10434 10441 10448 10455 10462 10470 10477 10483 10487 10491 10496 10499 10500 10503 10504 10504 10504 10506 10505 10504 10503 10501 10501 10497 10496 10496 10494 10492 10490 10487 10482 10479 10473 10469 10463 10459 10454
10373 10379 10386 10389 10395 10403 10412 10419 10424 10431 10438 10444 10451 10456 10462 10465 10467 10469 10472 10475 10476 10477 10477 10478 10478 10480 10481 10479 10478 10477 10474 10474 10474 10470 10468 10465 10459 10456 10453 10449 10443 10440 10436
10355 10359 10363 10368 10374 10381 10388 10394 10401 10407 10411 10418 10425 10432 10436 10437 10438 10442 10447 10451 10451 10454 10455 10453 10456 10457 10456 10453 10454 10455 10450 10450 10450 10448 10446 10441 10438 10436 10432 10428 10424 10421 10417
10341 10342 10345 10349 10354 10359 10364 10371 10378 10383 10389 10394 10399 10404 10407 10412 10415 10419 10420 10423 10427 10427 10428 10432 10434 10435 10435 10431 10430 10430 10431 10429 10427 10424 10423 10419 10417 10415 10412 10409 10405 10401 10397
10326 10328 10331 10333 10335 10339 10343 10347 10352 10359 10365 10371 10374 10378 10382 10385 10390 10392 10393 10398 10401 10404 10405 10408 10409 10409 10410 10409 10408 10408 10407 10405 10404 10403 10401 10398 10396 10394 10392 10389 10384 10380 10377
10313 10313 10315 10317 10320 10323 10326 10331 10334 10338 10342 10346 10351 10354 10357 10360 10365 10367 10369 10372 10374 10378 10382 10384 10385 10385 10383 10383 10385 10386 10385 10383 10382 10381 10380 10379 10378 10375 10371 10367 10364 10362 10359
10302 10301 10301 10302 10304 10306 10309 10312 10315 10319 10322 10324 10327 10330 10332 10336 10339 10342 10345 10348 10352 10355 10357 10360 10361 10361 10361 10362 10363 10364 10365 10361 10360 10361 10361 10360 10357 10354 10351 10348 10346 10343 10340
10294 10291 10290 10289 10289 10291 10292 10294 10297 10299 10301 10304 10305 10307 10310 10313 10317 10320 10323 10326 10329 10332 10333 10336 10338 10340 10340 10341 10341 10343 10343 10341 10342 10343 10342 10340 10337 10335 10333 10330 10328 10326 10323
10287 10284 10282 10280 10279 10278 10279 10280 10281 10283 10284 10286 10287 10288 10291 10294 10296 10299 10302 10305 10307 10309 10311 10314 10317 10319 10320 10320 10321 10323 10324 10324 10323 10324 10323 10321 10320 10318 10315 10313 10311 10309 10307